Tracking 25723 objects as of 26-Jun-2022
HD Live streaming from Space Station
objects crossing your sky now

FREGAT DEB

Track FREGAT DEB now!
10-day predictions


NORAD ID: 40078
Int'l Code: 2014-037K
Perigee: 628.5 km
Apogee: 820.9 km
Inclination: 98.0 °
Period: 99.1 minutes
Semi major axis: 7095 km
RCS: Unknown
Launch date: July 8, 2014
Source: Commonwealth of Independent States (former USSR) (CIS)
Launch site: TYURATAM MISSILE AND SPACE COMPLEX (TTMTR)

Note: This is SATELLITE DEBRIS
aabbcc
Your satellite tracking list
Your tracking list is empty




NASA's NSSDC Master Catalog

Two Line Element Set (TLE):
1 40078U 14037K   22177.56349551  .00000135  00000-0  40396-4 0  9996
2 40078  97.9968 196.0511 0135572 254.2945 104.3262 14.52488109422183
Source of the keplerian elements: AFSPC